Weather History for KLWS - October, 2012

Change the Weather History Date:

Thursday, October 4, 2012

  Actual Average Record
Temperature  
Mean Temperature 50 °F 57 °F  
Max Temperature 62 °F 69 °F 90 °F (1943)
Min Temperature 38 °F 45 °F 33 °F (1973)
Degree Days  
Heating Degree Days 15 8  
Month to date heating degree days 29 31  
Since 1 July heating degree days 41 145  
Cooling Degree Days 0 0  
Month to date cooling degree days 1 1  
Year to date cooling degree days 1034 805  
Moisture  
Dew Point 24 °F    
Average Humidity 41    
Maximum Humidity 59    
Minimum Humidity 22    
Precipitation  
Precipitation 0.00 in 0.03 in 0.67 in (1940)
Month to date precipitation 0.00 0.11  
Year to date precipitation 11.26 9.31  
Snow  
Snow 0.00 in 0.00 in T in (1927)
Month to date snowfall 0.0 0.0  
Since 1 July snowfall 0.0 0.0  
Since 1 September snowfall 0.0 0.0  
Snow Depth 0.00 in    
Sea Level Pressure  
Sea Level Pressure 30.28 in    
Wind  
Wind Speed 3 mph (South)    
Max Wind Speed 9 mph    
Max Gust Speed 12 mph    
Visibility 10 miles    
Events      
T = Trace of Precipitation, MM = Missing Value Source: NWS Daily Summary

Daily Weather History Graph

Daily Weather History Graph

Search for Another Location

Airport or City:

Trip Planner

Search our weather history database for the weather conditions in past years. The results will help you decide how hot, cold, wet, or windy it might be!

Date:

Astronomy

Oct. 04, 2012 Rise Set
Actual Time 6:51 AM PDT 6:21 PM PDT
Civil Twilight 6:21 AM PDT 6:50 PM PDT
Nautical Twilight 5:46 AM PDT 7:25 PM PDT
Astronomical Twilight 5:11 AM PDT 8:00 PM PDT
Moon 8:44 PM PDT 11:28 AM PDT
Length of Visible Light 12h 29m
Length of Day
11h 29m
Waning Gibbous, 81% of the Moon is Illuminated
Oct 4
Waning Gibbous
Oct 8
Last Quarter
Oct 15
New
Oct 21
First Quarter
Oct 29
Full

Hourly Weather History & Observations

Time (PDT) Temp. Windchill Dew Point Humidity Pressure Visibility Wind Dir Wind Speed Gust Speed Precip Events Conditions
12:56 AM 42.1 °F 39.2 °F 24.1 °F 49% 30.29 in 10.0 mi SE 4.6 mph - N/A   Clear
1:56 AM 41.0 °F 38.0 °F 24.1 °F 51% 30.29 in 10.0 mi SSE 4.6 mph - N/A   Clear
2:56 AM 39.0 °F 36.8 °F 23.0 °F 53% 30.28 in 10.0 mi SSE 3.5 mph - N/A   Clear
3:56 AM 39.9 °F 36.7 °F 24.1 °F 53% 30.27 in 10.0 mi SSE 4.6 mph - N/A   Clear
4:56 AM 41.0 °F 39.0 °F 25.0 °F 53% 30.27 in 10.0 mi South 3.5 mph - N/A   Clear
5:56 AM 39.0 °F 36.8 °F 25.0 °F 57% 30.28 in 10.0 mi SSE 3.5 mph - N/A   Clear
6:56 AM 39.0 °F - 27.0 °F 62% 30.30 in 10.0 mi Calm Calm - N/A   Clear
7:56 AM 39.0 °F - 27.0 °F 62% 30.31 in 10.0 mi Calm Calm - N/A   Clear
8:56 AM 44.1 °F - 28.0 °F 53% 30.31 in 10.0 mi Calm Calm - N/A   Clear
9:56 AM 46.9 °F - 27.0 °F 46% 30.32 in 10.0 mi Calm Calm - N/A   Clear
10:56 AM 51.1 °F - 28.9 °F 43% 30.31 in 10.0 mi Calm Calm - N/A   Clear
11:56 AM 54.0 °F - 28.9 °F 38% 30.29 in 10.0 mi Calm Calm - N/A   Clear
12:56 PM 57.0 °F - 27.0 °F 32% 30.28 in 10.0 mi Calm Calm - N/A   Clear
1:56 PM 60.8 °F - 26.6 °F 27% 30.25 in 10.0 mi WNW 4.6 mph - N/A   Clear
2:56 PM 61.0 °F - 26.1 °F 26% 30.26 in 9.0 mi SW 3.5 mph - N/A   Clear
3:56 PM 61.0 °F - 23.0 °F 23% 30.25 in 10.0 mi Variable 3.5 mph - N/A   Clear
4:56 PM 61.0 °F - 21.9 °F 22% 30.24 in 10.0 mi South 3.5 mph - N/A   Clear
5:56 PM 59.0 °F - 21.0 °F 23% 30.25 in 10.0 mi South 4.6 mph - N/A   Clear
6:56 PM 55.4 °F - 21.2 °F 26% 30.24 in 10.0 mi NNW 4.6 mph - N/A   Clear
7:56 PM 55.9 °F - 21.0 °F 26% 30.26 in 10.0 mi Calm Calm - N/A   Clear
8:56 PM 50.0 °F - 19.9 °F 31% 30.27 in 10.0 mi South 4.6 mph - N/A   Clear
9:56 PM 48.0 °F - 19.0 °F 32% 30.28 in 10.0 mi SSE 4.6 mph - N/A   Clear
10:56 PM 45.0 °F - 19.0 °F 36% 30.30 in 10.0 mi Calm Calm - N/A   Clear
11:56 PM 46.0 °F 43.9 °F 21.0 °F 37% 30.30 in 10.0 mi ESE 4.6 mph - N/A   Clear